Retour au catalogue

COSMOS 1363

ActifNavigationLEO
NORAD 13166·PAYLOAD·🇷🇺 Russia

Lancé May 6, 1982 depuis Plesetsk Cosmodrome

Loading…

Prochains Passages (prochaines 24 heures)

TLE

FraisSource: Space-Track

Époque: Sep 14, 2026, 22:30 UTC

1 13166U 82040G   26257.93782204 -.00000029  00000-0 -94720-4 0  9997
2 13166  74.0093  67.9529 0019895 300.0959 228.2722 12.44163277 14689

Suivez COSMOS 1363 en temps réel avec AllMySat

Download on the App Store